Location: Exeidioux
(45.6312°N, 1.6819°E)
Time: 13:15:03
(UTC+00:00)

Cosmos 1869 Rocket - Pass Details

Date: 03 March 2021
Orbit: 605 x 633 km, 82.5° (Epoch: 16 April)

Event Time Altitude Azimuth Distance (km) Brightness Sun altitude
Rises 19:49:57 0° 192° (SSW) 2,857 6.9 -22.8°
Reaches altitude 10° 19:52:09 10° 194° (SSW) 1,962 6.1 -23.2°
Maximum altitude 19:56:30 75° 279° (W) 643 3.6 -23.9°
Drops below altitude 10° 20:00:55 10° 6° (N) 1,995 6.3 -24.7°
Sets 20:03:10 0° 8° (N) 2,911 7.1 -25.0°
